timestamp,surface_pressure_avg,surface_temp_avg,battery_voltage,lat,long
2017-11-09 00:00:00+00:00,245.9781,9.8,12.81,47.84626,-54.09684
2017-11-09 00:10:00+00:00,240.6898,9.8,12.81,47.84626,-54.09684
2017-11-09 00:20:00+00:00,245.9948,9.8,12.89,47.84626,-54.09684
2017-11-09 00:30:00+00:00,257.9931,9.8,12.89,47.84626,-54.09684
2017-11-09 00:40:00+00:00,265.6514,9.8,12.89,47.84626,-54.09684
2017-11-09 00:50:00+00:00,269.4781,9.82,12.89,47.84626,-54.09684
2017-11-09 01:00:00+00:00,279.4631,9.83,12.81,47.84626,-54.09684
2017-11-09 01:10:00+00:00,294.9347,9.86,12.73,47.84626,-54.09684
2017-11-09 01:20:00+00:00,306.4481,9.86,12.81,47.84626,-54.09684
2017-11-09 01:30:00+00:00,307.9547,9.8,12.81,47.84626,-54.09684
2017-11-09 01:40:00+00:00,311.3181,9.8,12.81,47.84626,-54.09684
2017-11-09 01:50:00+00:00,325.7246,9.8,12.89,47.84626,-54.09684
2017-11-09 02:00:00+00:00,334.173,9.82,12.81,47.84626,-54.09684
2017-11-09 02:10:00+00:00,329.7547,9.86,12.73,47.84626,-54.09684
2017-11-09 02:20:00+00:00,328.8463,9.89,12.81,47.84626,-54.09684
2017-11-09 02:30:00+00:00,332.7847,9.8,12.81,47.84626,-54.09684
2017-11-09 02:40:00+00:00,334.1529,9.8,12.81,47.84626,-54.09684
2017-11-09 02:50:00+00:00,335.3196,9.8,12.81,47.84626,-54.09684
2017-11-09 03:00:00+00:00,338.9014,9.8,12.81,47.84626,-54.09684
2017-11-09 03:10:00+00:00,336.4046,9.8,12.73,47.84626,-54.09684
2017-11-09 03:20:00+00:00,334.4196,9.8,12.81,47.84626,-54.09684
2017-11-09 03:30:00+00:00,341.7479,9.8,12.81,47.84626,-54.09684
2017-11-09 03:40:00+00:00,349.5563,9.8,12.81,47.84626,-54.09684
2017-11-09 03:50:00+00:00,348.6129,9.8,12.81,47.84626,-54.09684
2017-11-09 04:00:00+00:00,341.2046,9.8,12.81,47.84626,-54.09684
2017-11-09 04:10:00+00:00,336.348,9.8,12.73,47.84626,-54.09684
2017-11-09 04:20:00+00:00,332.143,9.77,12.81,47.84626,-54.09684
2017-11-09 04:30:00+00:00,323.423,9.7,12.81,47.84626,-54.09684
2017-11-09 04:40:00+00:00,319.5231,9.34,12.81,47.84626,-54.09684
2017-11-09 04:50:00+00:00,319.7014,9.6,12.81,47.84626,-54.09684
2017-11-09 05:00:00+00:00,318.9664,9.69,12.73,47.84626,-54.09684
2017-11-09 05:10:00+00:00,311.2464,9.7,12.73,47.84626,-54.09684
2017-11-09 05:20:00+00:00,303.7213,9.7,12.81,47.84626,-54.09684
2017-11-09 05:30:00+00:00,298.9447,9.7,12.81,47.84626,-54.09684
2017-11-09 05:40:00+00:00,294.7597,9.7,12.81,47.84626,-54.09684
2017-11-09 05:50:00+00:00,288.2731,9.76,12.81,47.84626,-54.09684
2017-11-09 06:00:00+00:00,277.0547,9.79,12.73,47.84626,-54.09684
2017-11-09 06:10:00+00:00,264.5981,9.78,12.73,47.84626,-54.09684
2017-11-09 06:20:00+00:00,252.3898,9.7,12.81,47.84626,-54.09684
2017-11-09 06:30:00+00:00,235.2281,9.7,12.81,47.84626,-54.09684
2017-11-09 06:40:00+00:00,221.0864,9.66,12.81,47.84626,-54.09684
2017-11-09 06:50:00+00:00,219.1914,9.67,12.81,47.84626,-54.09684
2017-11-09 07:00:00+00:00,214.6031,9.24,12.73,47.84626,-54.09684
2017-11-09 07:10:00+00:00,204.9081,9.6,12.73,47.84626,-54.09684
2017-11-09 07:20:00+00:00,201.2148,9.53,12.81,47.84626,-54.09684
2017-11-09 07:30:00+00:00,199.5948,8.8,12.81,47.84626,-54.09684
2017-11-09 07:40:00+00:00,201.8081,9.54,12.81,47.84626,-54.09684
2017-11-09 07:50:00+00:00,201.1598,9.2,12.81,47.84626,-54.09684
2017-11-09 08:00:00+00:00,198.2598,9.1,12.73,47.84626,-54.09684
2017-11-09 08:10:00+00:00,200.8865,9.15,12.73,47.84626,-54.09684
2017-11-09 08:20:00+00:00,196.6815,8.98,12.81,47.84626,-54.09684
2017-11-09 08:30:00+00:00,193.8165,8.91,12.81,47.84626,-54.09684
2017-11-09 08:40:00+00:00,196.6414,9.0,12.81,47.84626,-54.09684
2017-11-09 08:50:00+00:00,196.2331,8.9,12.81,47.84626,-54.09684
2017-11-09 09:00:00+00:00,197.0314,8.86,12.73,47.84626,-54.09684
2017-11-09 09:10:00+00:00,203.1615,9.26,12.73,47.84626,-54.09684
2017-11-09 09:20:00+00:00,213.6465,9.3,12.81,47.84626,-54.09684
2017-11-09 09:30:00+00:00,208.3998,9.47,12.81,47.84626,-54.09684
2017-11-09 09:40:00+00:00,201.8048,9.59,12.81,47.84626,-54.09684
2017-11-09 09:50:00+00:00,217.6664,9.6,12.81,47.84626,-54.09684
2017-11-09 10:00:00+00:00,227.8131,9.7,12.73,47.84626,-54.09684
2017-11-09 10:10:00+00:00,221.1381,9.5,12.65,47.84626,-54.09684
2017-11-09 10:20:00+00:00,221.9164,9.6,12.81,47.84626,-54.09684
2017-11-09 10:30:00+00:00,233.4014,9.7,12.81,47.84626,-54.09684
2017-11-09 10:40:00+00:00,227.7648,9.6,12.81,47.84626,-54.09684
2017-11-09 10:50:00+00:00,219.8548,9.7,12.81,47.84626,-54.09684
2017-11-09 11:00:00+00:00,227.0748,9.73,12.73,47.84626,-54.09684
2017-11-09 11:10:00+00:00,233.4731,9.7,12.65,47.84626,-54.09684
2017-11-09 11:20:00+00:00,233.0065,9.6,12.81,47.84626,-54.09684
2017-11-09 11:30:00+00:00,237.7697,9.7,12.81,47.84626,-54.09684
2017-11-09 11:40:00+00:00,246.7614,9.5,12.81,47.84626,-54.09684
2017-11-09 11:50:00+00:00,248.8848,9.57,12.81,47.84626,-54.09684
2017-11-09 12:00:00+00:00,251.6964,9.5,12.73,47.84626,-54.09684
2017-11-09 12:10:00+00:00,260.1164,9.5,12.73,47.84626,-54.09684
2017-11-09 12:20:00+00:00,267.9364,9.5,12.81,47.84626,-54.09684
2017-11-09 12:30:00+00:00,270.6514,9.2,12.81,47.84626,-54.09684
2017-11-09 12:40:00+00:00,279.0464,9.1,12.81,47.84626,-54.09684
2017-11-09 12:50:00+00:00,292.7164,9.4,12.81,47.84626,-54.09684
2017-11-09 13:00:00+00:00,293.8897,9.42,12.81,47.84626,-54.09684
2017-11-09 13:10:00+00:00,293.6063,9.45,12.73,47.84626,-54.09684
2017-11-09 13:20:00+00:00,308.0047,9.4,12.81,47.84626,-54.09684
2017-11-09 13:30:00+00:00,328.068,9.44,12.81,47.84626,-54.09684
2017-11-09 13:40:00+00:00,328.1581,9.5,12.81,47.84626,-54.09684
2017-11-09 13:50:00+00:00,329.5979,9.5,12.89,47.84626,-54.09684
2017-11-09 14:00:00+00:00,346.798,9.51,12.81,47.84626,-54.09684
2017-11-09 14:10:00+00:00,356.2729,9.55,12.73,47.84626,-54.09684
2017-11-09 14:20:00+00:00,348.1546,9.59,12.89,47.84626,-54.09684
2017-11-09 14:30:00+00:00,349.8747,9.59,12.89,47.84626,-54.09684
2017-11-09 14:40:00+00:00,359.1529,9.59,12.97,47.84626,-54.09684
2017-11-09 14:50:00+00:00,358.738,9.6,12.97,47.84626,-54.09684
2017-11-09 15:00:00+00:00,353.6213,9.66,12.97,47.84626,-54.09684
2017-11-09 15:10:00+00:00,359.418,9.67,12.81,47.84626,-54.09684
2017-11-09 15:20:00+00:00,362.3729,9.68,12.89,47.84626,-54.09684
2017-11-09 15:30:00+00:00,361.5079,9.6,12.89,47.84626,-54.09684
2017-11-09 15:40:00+00:00,364.348,9.53,12.97,47.84626,-54.09684
2017-11-09 15:50:00+00:00,367.9246,9.66,12.97,47.84626,-54.09684
2017-11-09 16:00:00+00:00,364.1712,9.6,12.89,47.84626,-54.09684
2017-11-09 16:10:00+00:00,362.6862,9.59,12.81,47.84626,-54.09684
2017-11-09 16:20:00+00:00,366.603,9.5,12.81,47.84626,-54.09684
2017-11-09 16:30:00+00:00,366.1846,9.5,12.81,47.84626,-54.09684
2017-11-09 16:40:00+00:00,360.3463,9.49,12.81,47.84626,-54.09684
2017-11-09 16:50:00+00:00,359.2979,9.4,12.81,47.84626,-54.09684
2017-11-09 17:00:00+00:00,357.3062,9.4,12.81,47.84626,-54.09684
2017-11-09 17:10:00+00:00,351.7096,9.3,12.73,47.84626,-54.09684
2017-11-09 17:20:00+00:00,345.7263,9.32,12.81,47.84626,-54.09684
2017-11-09 17:30:00+00:00,344.2845,9.35,12.81,47.84626,-54.09684
2017-11-09 17:40:00+00:00,334.7764,9.45,12.81,47.84626,-54.09684
2017-11-09 17:50:00+00:00,321.5496,9.5,12.81,47.84626,-54.09684
2017-11-09 18:00:00+00:00,319.748,9.4,12.73,47.84626,-54.09684
2017-11-09 18:10:00+00:00,320.483,9.38,12.73,47.84626,-54.09684
2017-11-09 18:20:00+00:00,308.8063,9.33,12.81,47.84626,-54.09684
2017-11-09 18:30:00+00:00,296.4446,9.31,12.81,47.84626,-54.09684
2017-11-09 18:40:00+00:00,292.623,9.3,12.81,47.84626,-54.09684
2017-11-09 18:50:00+00:00,283.4714,9.3,12.81,47.84626,-54.09684
2017-11-09 19:00:00+00:00,265.9564,9.22,12.73,47.84626,-54.09684
2017-11-09 19:10:00+00:00,255.9614,9.29,12.73,47.84626,-54.09684
2017-11-09 19:20:00+00:00,249.9181,9.3,12.81,47.84626,-54.09684
2017-11-09 19:30:00+00:00,235.9031,9.29,12.81,47.84626,-54.09684
2017-11-09 19:40:00+00:00,225.1731,9.29,12.81,47.84626,-54.09684
2017-11-09 19:50:00+00:00,232.6081,9.3,12.81,47.84626,-54.09684
2017-11-09 20:00:00+00:00,231.1414,9.3,12.73,47.84626,-54.09684
2017-11-09 20:10:00+00:00,216.2531,9.3,12.73,47.84626,-54.09684
2017-11-09 20:20:00+00:00,214.4114,9.3,12.81,47.84626,-54.09684
2017-11-09 20:30:00+00:00,219.7331,9.3,12.81,47.84626,-54.09684
2017-11-09 20:40:00+00:00,213.8381,9.3,12.81,47.84626,-54.09684
2017-11-09 20:50:00+00:00,210.5281,9.3,12.81,47.84626,-54.09684
2017-11-09 21:00:00+00:00,213.7948,9.3,12.73,47.84626,-54.09684
2017-11-09 21:10:00+00:00,211.0481,9.3,12.73,47.84626,-54.09684
2017-11-09 21:20:00+00:00,208.7331,9.3,12.81,47.84626,-54.09684
2017-11-09 21:30:00+00:00,217.9365,9.3,12.81,47.84626,-54.09684
2017-11-09 21:40:00+00:00,220.7898,9.3,12.81,47.84626,-54.09684
2017-11-09 21:50:00+00:00,220.3364,9.3,12.81,47.84626,-54.09684
2017-11-09 22:00:00+00:00,225.2298,9.3,12.73,47.84626,-54.09684
2017-11-09 22:10:00+00:00,229.2631,9.3,12.73,47.84626,-54.09684
2017-11-09 22:20:00+00:00,229.2397,9.3,12.81,47.84626,-54.09684
2017-11-09 22:30:00+00:00,230.8248,9.3,12.81,47.84626,-54.09684
2017-11-09 22:40:00+00:00,233.1014,9.2,12.81,47.84626,-54.09684
2017-11-09 22:50:00+00:00,232.1681,9.1,12.81,47.84626,-54.09684
2017-11-09 23:00:00+00:00,228.9964,9.1,12.73,47.84626,-54.09684
2017-11-09 23:10:00+00:00,231.7448,9.14,12.73,47.84626,-54.09684
2017-11-09 23:20:00+00:00,235.9747,9.1,12.81,47.84626,-54.09684
2017-11-09 23:30:00+00:00,235.3347,9.1,12.81,47.84626,-54.09684
2017-11-09 23:40:00+00:00,235.5531,9.11,12.81,47.84626,-54.09684
2017-11-09 23:50:00+00:00,238.5381,9.2,12.81,47.84626,-54.09684
